• en Belgique
  • Liste des pays
  • À 7 jours
  • Température de l'eau
  • Carte satellitaire
  • Carte météo
  • Widgets météo
  • user-avatar
    Se connecter

    Météo par heure à Bilzen

    Ce jour, 22 Novembre, Mercredi

    Heure Température Précipitation Vent Pression Humidité
    00:00 +9°C° 0 mm 6 m/s 752 mmHg 89%
    01:00 +9°C° 0 mm 6 m/s 752 mmHg 88%
    02:00 +9°C° 0 mm 7 m/s 751 mmHg 87%
    03:00 +9°C° 0 mm 7 m/s 751 mmHg 86%
    04:00 +9°C° 0 mm 7 m/s 751 mmHg 87%
    05:00 +8°C° 0 mm 6 m/s 751 mmHg 88%
    06:00 +8°C° 0 mm 5 m/s 750 mmHg 90%
    07:00 +8°C° 0 mm 6 m/s 751 mmHg 88%
    08:00 +8°C° 0 mm 6 m/s 751 mmHg 85%
    09:00 +8°C° 0 mm 6 m/s 751 mmHg 83%
    10:00 +9°C° 0 mm 6 m/s 750 mmHg 78%
    11:00 +10°C° 0 mm 6 m/s 750 mmHg 73%
    12:00 +12°C° 0 mm 5 m/s 750 mmHg 72%
    13:00 +12°C° 0 mm 5 m/s 750 mmHg 71%
    14:00 +12°C° 0 mm 5 m/s 749 mmHg 70%
    15:00 +12°C° 0 mm 5 m/s 749 mmHg 69%
    16:00 +10°C° 0 mm 6 m/s 748 mmHg 67%
    17:00 +10°C° 0 mm 6 m/s 748 mmHg 65%
    18:00 +9°C° 0 mm 7 m/s 748 mmHg 63%
    19:00 +9°C° 0 mm 7 m/s 747 mmHg 61%
    20:00 +9°C° 0 mm 7 m/s 747 mmHg 60%
    21:00 +10°C° 0 mm 7 m/s 747 mmHg 58%
    22:00 +10°C° 0 mm 7 m/s 747 mmHg 58%
    23:00 +10°C° 0 mm 7 m/s 746 mmHg 57%

    Demain, 23 Novembre, Jeudi

    Heure Température Précipitation Vent Pression Humidité
    00:00 +10°C° 0 mm 8 m/s 746 mmHg 57%
    01:00 +9°C° 0 mm 8 m/s 746 mmHg 59%
    02:00 +9°C° 0 mm 8 m/s 745 mmHg 62%
    03:00 +9°C° 0 mm 8 m/s 745 mmHg 64%
    04:00 +10°C° 0 mm 9 m/s 745 mmHg 63%
    05:00 +10°C° 0 mm 9 m/s 745 mmHg 62%
    06:00 +11°C° 0 mm 9 m/s 745 mmHg 62%
    07:00 +11°C° 0 mm 10 m/s 745 mmHg 62%
    08:00 +12°C° 0 mm 10 m/s 745 mmHg 62%
    09:00 +12°C° 0 mm 11 m/s 745 mmHg 63%
    10:00 +13°C° 0 mm 10 m/s 745 mmHg 64%
    11:00 +13°C° 0 mm 10 m/s 746 mmHg 65%
    12:00 +13°C° 0 mm 10 m/s 746 mmHg 67%
    13:00 +13°C° 0,2 mm 9 m/s 747 mmHg 70%
    14:00 +13°C° 0,2 mm 8 m/s 747 mmHg 74%
    15:00 +12°C° 0,2 mm 7 m/s 748 mmHg 77%
    16:00 +11°C° 0,2 mm 6 m/s 749 mmHg 79%
    17:00 +12°C° 0,2 mm 5 m/s 750 mmHg 81%
    18:00 +11°C° 0,2 mm 4 m/s 750 mmHg 83%
    19:00 +10°C° 0,1 mm 4 m/s 751 mmHg 83%
    20:00 +10°C° 0,1 mm 3 m/s 751 mmHg 83%
    21:00 +9°C° 0,1 mm 3 m/s 752 mmHg 83%
    22:00 +9°C° 0 mm 3 m/s 752 mmHg 84%
    23:00 +8°C° 0 mm 3 m/s 752 mmHg 86%

    Après-demain, 24 Novembre, Vendredi

    Heure Température Précipitation Vent Pression Humidité
    00:00 +8°C° 0 mm 3 m/s 752 mmHg 87%
    01:00 +8°C° 0,1 mm 4 m/s 751 mmHg 87%
    02:00 +9°C° 0,1 mm 5 m/s 750 mmHg 86%
    03:00 +10°C° 0,1 mm 6 m/s 749 mmHg 85%
    04:00 +10°C° 0,2 mm 7 m/s 749 mmHg 84%
    05:00 +11°C° 0,2 mm 8 m/s 748 mmHg 83%
    06:00 +11°C° 0,2 mm 8 m/s 748 mmHg 81%
    07:00 +11°C° 0,2 mm 9 m/s 748 mmHg 81%
    08:00 +11°C° 0,2 mm 9 m/s 749 mmHg 80%
    09:00 +11°C° 0,2 mm 9 m/s 749 mmHg 80%
    10:00 +10°C° 0,2 mm 7 m/s 750 mmHg 79%
    11:00 +9°C° 0,2 mm 6 m/s 751 mmHg 78%
    12:00 +8°C° 0,2 mm 5 m/s 752 mmHg 77%
    13:00 +8°C° 0,1 mm 4 m/s 752 mmHg 77%
    14:00 +7°C° 0,1 mm 4 m/s 753 mmHg 76%
    15:00 +8°C° 0,1 mm 3 m/s 754 mmHg 76%
    16:00 +7°C° 0 mm 3 m/s 755 mmHg 77%
    17:00 +6°C° 0 mm 2 m/s 755 mmHg 79%
    18:00 +7°C° 0 mm 1 m/s 756 mmHg 81%
    19:00 +6°C° 0 mm 1 m/s 756 mmHg 81%
    20:00 +6°C° 0 mm 1 m/s 756 mmHg 81%
    21:00 +6°C° 0 mm 1 m/s 756 mmHg 81%
    22:00 +6°C° 0 mm 1 m/s 756 mmHg 82%
    23:00 +6°C° 0 mm 1 m/s 755 mmHg 82%

    25 Novembre, Samedi

    Heure Température Précipitation Vent Pression Humidité
    00:00 +6°C° 0 mm 1 m/s 755 mmHg 82%
    01:00 +6°C° 0 mm 1 m/s 754 mmHg 83%
    02:00 +5°C° 0 mm 1 m/s 754 mmHg 83%
    03:00 +5°C° 0 mm 1 m/s 753 mmHg 84%
    04:00 +5°C° 0 mm 1 m/s 753 mmHg 85%
    05:00 +4°C° 0 mm 2 m/s 752 mmHg 86%
    06:00 +4°C° 0 mm 2 m/s 751 mmHg 88%
    07:00 +4°C° 1 mm 2 m/s 751 mmHg 87%
    08:00 +4°C° 1 mm 2 m/s 751 mmHg 87%
    09:00 +4°C° 1 mm 3 m/s 751 mmHg 87%
    10:00 +3°C° 2,5 mm 4 m/s 751 mmHg 86%
    11:00 +2°C° 2,5 mm 5 m/s 752 mmHg 85%
    12:00 +2°C° 2,5 mm 6 m/s 752 mmHg 84%
    13:00 +2°C° 0,7 mm 5 m/s 753 mmHg 82%
    14:00 +2°C° 0,7 mm 5 m/s 754 mmHg 79%
    15:00 +2°C° 0,7 mm 5 m/s 755 mmHg 77%
    16:00 +2°C° 0,1 mm 5 m/s 756 mmHg 78%
    17:00 +1°C° 0,1 mm 5 m/s 757 mmHg 78%
    18:00 +1°C° 0,1 mm 5 m/s 757 mmHg 79%
    19:00 0°C° 0 mm 5 m/s 758 mmHg 79%
    20:00 0°C° 0 mm 5 m/s 758 mmHg 80%
    21:00 0°C° 0 mm 5 m/s 759 mmHg 80%
    22:00 0°C° 0 mm 5 m/s 759 mmHg 81%
    23:00 0°C° 0 mm 5 m/s 759 mmHg 82%

    26 Novembre, Dimanche

    Heure Température Précipitation Vent Pression Humidité
    00:00 0°C° 0 mm 5 m/s 759 mmHg 83%
    01:00 -1°C° 0 mm 5 m/s 759 mmHg 83%
    02:00 -1°C° 0 mm 5 m/s 759 mmHg 84%
    03:00 -1°C° 0 mm 5 m/s 759 mmHg 84%
    04:00 -1°C° 0 mm 5 m/s 759 mmHg 84%
    05:00 -1°C° 0 mm 5 m/s 759 mmHg 83%
    06:00 -1°C° 0 mm 5 m/s 759 mmHg 83%
    07:00 0°C° 0 mm 5 m/s 759 mmHg 81%
    08:00 -1°C° 0 mm 6 m/s 760 mmHg 79%
    09:00 +1°C° 0 mm 6 m/s 760 mmHg 77%
    10:00 +2°C° 0,3 mm 6 m/s 760 mmHg 78%
    11:00 +2°C° 0,3 mm 7 m/s 760 mmHg 79%
    12:00 +3°C° 0,3 mm 7 m/s 760 mmHg 80%
    13:00 +3°C° 0,3 mm 6 m/s 760 mmHg 80%
    14:00 +3°C° 0,3 mm 5 m/s 760 mmHg 80%
    15:00 +3°C° 0,3 mm 5 m/s 760 mmHg 80%
    16:00 +2°C° 0,2 mm 5 m/s 760 mmHg 81%
    17:00 +2°C° 0,2 mm 5 m/s 761 mmHg 82%
    18:00 +3°C° 0,2 mm 4 m/s 761 mmHg 83%
    19:00 +1°C° 0,1 mm 4 m/s 761 mmHg 83%
    20:00 +1°C° 0,1 mm 4 m/s 762 mmHg 82%
    21:00 +1°C° 0,1 mm 4 m/s 762 mmHg 82%
    22:00 +1°C° 0,1 mm 4 m/s 762 mmHg 83%
    23:00 +1°C° 0,1 mm 4 m/s 762 mmHg 84%

    27 Novembre, Lundi

    Heure Température Précipitation Vent Pression Humidité
    00:00 +1°C° 0,1 mm 4 m/s 762 mmHg 85%
    01:00 +1°C° 0,1 mm 4 m/s 762 mmHg 86%
    02:00 +1°C° 0,1 mm 4 m/s 762 mmHg 87%
    03:00 +1°C° 0,1 mm 4 m/s 762 mmHg 87%
    04:00 +1°C° 0 mm 4 m/s 762 mmHg 87%
    05:00 +1°C° 0 mm 4 m/s 763 mmHg 87%
    06:00 +1°C° 0 mm 4 m/s 763 mmHg 87%
    07:00 +1°C° 0 mm 4 m/s 763 mmHg 87%
    08:00 +2°C° 0 mm 5 m/s 763 mmHg 86%
    09:00 +2°C° 0 mm 5 m/s 762 mmHg 86%
    10:00 +2°C° 0,5 mm 6 m/s 762 mmHg 86%
    11:00 +3°C° 0,5 mm 6 m/s 761 mmHg 86%
    12:00 +3°C° 0,5 mm 7 m/s 760 mmHg 85%
    13:00 +3°C° 1 mm 7 m/s 760 mmHg 87%
    14:00 +4°C° 1 mm 7 m/s 759 mmHg 88%
    15:00 +4°C° 1 mm 7 m/s 758 mmHg 90%
    16:00 +4°C° 0,7 mm 6 m/s 758 mmHg 90%
    17:00 +4°C° 0,7 mm 6 m/s 757 mmHg 91%
    18:00 +6°C° 0,7 mm 5 m/s 757 mmHg 92%
    19:00 +5°C° 0,2 mm 5 m/s 757 mmHg 90%
    20:00 +5°C° 0,2 mm 5 m/s 757 mmHg 88%
    21:00 +5°C° 0,2 mm 5 m/s 756 mmHg 87%
    22:00 +5°C° 0,1 mm 5 m/s 756 mmHg 86%
    23:00 +5°C° 0,1 mm 5 m/s 756 mmHg 86%
    Voir plus